User: anonymous   Login
Location: Newark
(56.0692°N, 115.8617°E)
Time: 05:47:07
(UTC+00:00)
Language:

Courier 1B - Orbit

View from above orbital plane
View from above orbital plane
View from above satellite
View from above satellite

Ground track
Ground track

The orbit data is extracted from the following two-line orbital elements,

1    58U 60013A   20157.70953143  .00000091  00000-0  93564-5 0  9992
2    58  28.3263 154.2086 0164956 332.0678  27.1094 13.46322162937568
Epoch (UTC): 05 June 2020 17:01:43
Eccentricity: 0.0164956
inclination: 28.3263°
perigee height: 963 km
apogee height: 1209 km
right ascension of ascending node: 154.2086°
argument of perigee: 332.0678°
revolutions per day: 13.46322162
mean anomaly at epoch: 27.1094°
orbit number at epoch: 93756

The dashed part of the orbit path shows where the satellite is in the earth's shadow,  

DLR